VLG8CC LEIB-LEBB

Flight info

Callsign VLG8CC
Flight time 1h 2m
Altitude 32000
Route EPAMA N856 UMURE DCT XIKEN DCT KARES DCT ARBEK DCT REBUL/N0435F330 M601 CEGAM
Aircraft A320/M-SDE3FGHIRWY/LB1

Departure

Time 2026-05-06 17:47
Airport Ibiza Airport (LEIB)

Arrival

Time 2026-05-06 18:50
Airport Bilbao Airport (LEBB)
Time Latitude Longitude Altitude Speed Heading
2026-05-06 17:18 38.87567 1.36915 10 ft 0 kts 333°
2026-05-06 17:37 38.87554 1.36924 12 ft 3 kts 327°
2026-05-06 17:38 38.87538 1.36939 9 ft 3 kts 314°
2026-05-06 17:38 38.87526 1.36959 11 ft 3 kts 295°
2026-05-06 17:38 38.87520 1.36983 10 ft 3 kts 270°
2026-05-06 17:38 38.87523 1.37007 8 ft 2 kts 243°
2026-05-06 17:39 38.87524 1.37009 8 ft 0 kts 242°
2026-05-06 17:43 38.87518 1.36996 10 ft 7 kts 242°
2026-05-06 17:43 38.87488 1.36923 8 ft 9 kts 242°
2026-05-06 17:43 38.87461 1.36857 8 ft 8 kts 242°
2026-05-06 17:44 38.87431 1.36807 8 ft 6 kts 211°
2026-05-06 17:44 38.87393 1.36806 8 ft 6 kts 159°
2026-05-06 17:44 38.87325 1.36847 9 ft 15 kts 154°
2026-05-06 17:44 38.87249 1.36768 9 ft 20 kts 243°
2026-05-06 17:45 38.87169 1.36579 8 ft 27 kts 242°
2026-05-06 17:45 38.87088 1.36381 8 ft 25 kts 242°
2026-05-06 17:45 38.87010 1.36217 8 ft 14 kts 207°
2026-05-06 17:45 38.86942 1.36244 7 ft 7 kts 153°
2026-05-06 17:46 38.86894 1.36274 7 ft 8 kts 153°
2026-05-06 17:46 38.86879 1.36327 5 ft 7 kts 75°
2026-05-06 17:46 38.86884 1.36339 5 ft 0 kts 63°
2026-05-06 17:46 38.86884 1.36340 5 ft 1 kts 63°
2026-05-06 17:47 38.86955 1.36517 7 ft 59 kts 63°
2026-05-06 17:47 38.87250 1.37241 12 ft 122 kts 62°
2026-05-06 17:47 38.87709 1.38364 250 ft 145 kts 63°
2026-05-06 17:47 38.88150 1.39480 955 ft 140 kts 70°
2026-05-06 17:48 38.88437 1.40703 1441 ft 149 kts 78°
2026-05-06 17:48 38.88678 1.42082 1739 ft 172 kts 77°
2026-05-06 17:48 38.88959 1.43674 2038 ft 194 kts 78°
2026-05-06 17:48 38.89273 1.45442 2526 ft 208 kts 77°
2026-05-06 17:49 38.89600 1.47268 3269 ft 212 kts 78°
2026-05-06 17:49 38.89931 1.49123 3975 ft 217 kts 78°
2026-05-06 17:49 38.90272 1.51028 4700 ft 220 kts 78°
2026-05-06 17:49 38.90635 1.52951 5405 ft 224 kts 72°
2026-05-06 17:50 38.91365 1.54735 6086 ft 233 kts 52°
2026-05-06 17:50 38.92583 1.56267 6434 ft 258 kts 41°
2026-05-06 17:50 38.93977 1.57847 6940 ft 274 kts 41°
2026-05-06 17:50 38.95421 1.59494 7710 ft 280 kts 40°
2026-05-06 17:51 38.96887 1.61168 8519 ft 285 kts 40°
2026-05-06 17:51 38.98377 1.62879 9353 ft 289 kts 39°
2026-05-06 17:51 38.99996 1.64409 10131 ft 290 kts 26°
2026-05-06 17:51 39.01872 1.65374 10831 ft 293 kts 11°
2026-05-06 17:52 39.03952 1.65561 11118 ft 310 kts 349°
2026-05-06 17:52 39.06138 1.65003 11415 ft 329 kts 345°
2026-05-06 17:52 39.08400 1.64365 12027 ft 336 kts 345°
2026-05-06 17:52 39.10708 1.63706 12721 ft 342 kts 345°
2026-05-06 17:53 39.13046 1.63037 13420 ft 347 kts 345°
2026-05-06 17:53 39.15423 1.62358 14074 ft 352 kts 345°
2026-05-06 17:53 39.17827 1.61675 14698 ft 356 kts 344°
2026-05-06 17:53 39.20228 1.60997 15343 ft 359 kts 344°
2026-05-06 17:54 39.22677 1.60308 15982 ft 362 kts 344°
2026-05-06 17:54 39.25152 1.59611 16613 ft 365 kts 344°
2026-05-06 17:54 39.27640 1.58910 17250 ft 368 kts 344°
2026-05-06 17:54 39.30159 1.58201 17887 ft 372 kts 343°
2026-05-06 17:55 39.32699 1.57486 18464 ft 375 kts 343°
2026-05-06 17:55 39.35265 1.56764 19003 ft 379 kts 343°
2026-05-06 17:55 39.37849 1.56037 19527 ft 382 kts 343°
2026-05-06 17:55 39.40459 1.55299 20057 ft 386 kts 343°
2026-05-06 17:56 39.43060 1.54562 20586 ft 389 kts 343°
2026-05-06 17:56 39.45718 1.53806 21109 ft 393 kts 342°
2026-05-06 17:56 39.48397 1.53043 21636 ft 396 kts 342°
2026-05-06 17:56 39.51098 1.52274 22194 ft 399 kts 343°
2026-05-06 17:57 39.53823 1.51497 22750 ft 401 kts 343°
2026-05-06 17:57 39.56558 1.50714 23266 ft 405 kts 343°
2026-05-06 17:57 39.58422 1.50181 23605 ft 406 kts 342°
2026-05-06 17:57 39.62094 1.49133 23895 ft 408 kts 342°
2026-05-06 17:58 39.63938 1.48608 23924 ft 408 kts 342°
2026-05-06 17:58 39.66723 1.47816 24100 ft 411 kts 342°
2026-05-06 17:58 39.70431 1.46761 24681 ft 413 kts 342°
2026-05-06 17:58 39.72334 1.46221 24953 ft 415 kts 342°
2026-05-06 17:59 39.75166 1.45415 25341 ft 418 kts 341°
2026-05-06 17:59 39.78012 1.44600 25724 ft 420 kts 341°
2026-05-06 17:59 39.80876 1.43776 26106 ft 423 kts 341°
2026-05-06 17:59 39.83773 1.42942 26427 ft 427 kts 341°
2026-05-06 18:00 39.86683 1.42100 26779 ft 430 kts 341°
2026-05-06 18:00 39.89572 1.41268 27132 ft 432 kts 341°
2026-05-06 18:00 39.92527 1.40420 27480 ft 435 kts 341°
2026-05-06 18:00 39.95501 1.39566 27832 ft 438 kts 341°
2026-05-06 18:01 39.98479 1.38707 28164 ft 440 kts 340°
2026-05-06 18:01 40.01475 1.37843 28504 ft 442 kts 340°
2026-05-06 18:01 40.04494 1.36973 28809 ft 446 kts 340°
2026-05-06 18:01 40.07536 1.36096 29094 ft 449 kts 340°
2026-05-06 18:02 40.10576 1.35164 29392 ft 447 kts 335°
2026-05-06 18:02 40.13383 1.33547 29690 ft 437 kts 323°
2026-05-06 18:02 40.16046 1.31606 29973 ft 439 kts 323°
2026-05-06 18:02 40.18716 1.29649 30232 ft 441 kts 323°
2026-05-06 18:03 40.21391 1.27679 30493 ft 442 kts 322°
2026-05-06 18:03 40.24036 1.25723 30762 ft 443 kts 322°
2026-05-06 18:03 40.26716 1.23740 31068 ft 442 kts 322°
2026-05-06 18:03 40.29396 1.21761 31361 ft 442 kts 322°
2026-05-06 18:04 40.32075 1.19787 31736 ft 440 kts 322°
2026-05-06 18:04 40.34735 1.17827 31906 ft 438 kts 322°
2026-05-06 18:04 40.37357 1.15903 31935 ft 424 kts 322°
2026-05-06 18:04 40.39908 1.14032 31943 ft 417 kts 321°
2026-05-06 18:05 40.44943 1.10308 31930 ft 414 kts 321°
2026-05-06 18:05 40.49950 1.06574 31929 ft 413 kts 321°
2026-05-06 18:06 40.54912 1.02875 31931 ft 412 kts 321°
2026-05-06 18:06 40.59905 0.99153 31924 ft 412 kts 321°
2026-05-06 18:07 40.64890 0.95430 31918 ft 412 kts 321°
2026-05-06 18:07 40.69875 0.91710 31915 ft 412 kts 321°
2026-05-06 18:08 40.74856 0.87989 31912 ft 412 kts 321°
2026-05-06 18:08 40.79846 0.84250 31913 ft 411 kts 321°
2026-05-06 18:09 40.84824 0.80505 31911 ft 411 kts 321°
2026-05-06 18:09 40.89800 0.76756 31912 ft 412 kts 321°
2026-05-06 18:10 40.94782 0.73003 31937 ft 412 kts 323°
2026-05-06 18:10 40.99762 0.69243 31923 ft 412 kts 323°
2026-05-06 18:11 41.04736 0.65480 31917 ft 412 kts 323°
2026-05-06 18:11 41.09685 0.61733 31909 ft 412 kts 323°
2026-05-06 18:12 41.14660 0.57960 31922 ft 412 kts 323°
2026-05-06 18:12 41.19635 0.54180 31905 ft 412 kts 323°
2026-05-06 18:13 41.24610 0.50389 31899 ft 412 kts 323°
2026-05-06 18:13 41.29592 0.46593 31899 ft 413 kts 323°
2026-05-06 18:14 41.34572 0.42781 31905 ft 413 kts 323°
2026-05-06 18:14 41.39553 0.38965 31917 ft 413 kts 323°
2026-05-06 18:15 41.44546 0.35136 31909 ft 413 kts 323°
2026-05-06 18:15 41.49527 0.31307 31905 ft 413 kts 323°
2026-05-06 18:16 41.54473 0.27497 31904 ft 413 kts 323°
2026-05-06 18:16 41.59464 0.23645 31920 ft 414 kts 324°
2026-05-06 18:17 41.64442 0.19805 31912 ft 413 kts 324°
2026-05-06 18:17 41.69432 0.15950 31906 ft 413 kts 324°
2026-05-06 18:18 41.74397 0.12095 31905 ft 413 kts 323°
2026-05-06 18:18 41.79363 0.08229 31920 ft 412 kts 324°
2026-05-06 18:19 41.84316 0.04378 31911 ft 412 kts 324°
2026-05-06 18:19 41.89240 0.00546 31905 ft 411 kts 324°
2026-05-06 18:20 41.94190 -0.03315 31921 ft 411 kts 324°
2026-05-06 18:20 41.99143 -0.07188 31944 ft 411 kts 324°
2026-05-06 18:21 42.04083 -0.11071 31948 ft 411 kts 324°
2026-05-06 18:21 42.09025 -0.14950 31947 ft 410 kts 324°
2026-05-06 18:22 42.13957 -0.18832 31944 ft 410 kts 324°
2026-05-06 18:22 42.18772 -0.22906 31917 ft 405 kts 316°
2026-05-06 18:23 42.22446 -0.28490 31938 ft 395 kts 298°
2026-05-06 18:23 42.24924 -0.35021 31934 ft 393 kts 294°
2026-05-06 18:24 42.27360 -0.41668 31748 ft 390 kts 294°
2026-05-06 18:24 42.28547 -0.44894 31498 ft 387 kts 294°
2026-05-06 18:24 42.29741 -0.48145 31251 ft 385 kts 294°
2026-05-06 18:25 42.30937 -0.51422 30999 ft 383 kts 294°
2026-05-06 18:25 42.32095 -0.54607 30749 ft 382 kts 294°
2026-05-06 18:25 42.33264 -0.57822 30497 ft 380 kts 294°
2026-05-06 18:25 42.34429 -0.61023 30258 ft 379 kts 294°
2026-05-06 18:26 42.35589 -0.64217 30011 ft 378 kts 294°
2026-05-06 18:26 42.36743 -0.67396 29728 ft 376 kts 294°
2026-05-06 18:26 42.37897 -0.70570 29438 ft 375 kts 294°
2026-05-06 18:26 42.39041 -0.73732 29157 ft 374 kts 294°
2026-05-06 18:27 42.40182 -0.76895 28875 ft 373 kts 294°
2026-05-06 18:27 42.41319 -0.80054 28600 ft 375 kts 295°
2026-05-06 18:27 42.42466 -0.83230 28334 ft 375 kts 295°
2026-05-06 18:27 42.43615 -0.86403 28055 ft 374 kts 295°
2026-05-06 18:28 42.44759 -0.89566 27796 ft 373 kts 295°
2026-05-06 18:28 42.45894 -0.92715 27526 ft 372 kts 295°
2026-05-06 18:28 42.47024 -0.95864 27267 ft 371 kts 295°
2026-05-06 18:28 42.48148 -0.99000 26997 ft 370 kts 295°
2026-05-06 18:29 42.49253 -1.02091 26739 ft 369 kts 295°
2026-05-06 18:29 42.50368 -1.05212 26479 ft 368 kts 295°
2026-05-06 18:29 42.51496 -1.08366 26227 ft 367 kts 295°
2026-05-06 18:29 42.52594 -1.11432 25979 ft 366 kts 295°
2026-05-06 18:30 42.53701 -1.14526 25730 ft 365 kts 295°
2026-05-06 18:30 42.54803 -1.17619 25485 ft 364 kts 295°
2026-05-06 18:30 42.55909 -1.20726 25228 ft 363 kts 295°
2026-05-06 18:30 42.57006 -1.23808 24991 ft 363 kts 295°
2026-05-06 18:31 42.58100 -1.26881 24751 ft 362 kts 295°
2026-05-06 18:31 42.59192 -1.29951 24508 ft 361 kts 295°
2026-05-06 18:31 42.60284 -1.33026 24271 ft 360 kts 295°
2026-05-06 18:31 42.61367 -1.36084 24045 ft 359 kts 295°
2026-05-06 18:32 42.62444 -1.39128 23811 ft 357 kts 295°
2026-05-06 18:32 42.63518 -1.42159 23576 ft 356 kts 295°
2026-05-06 18:32 42.64587 -1.45174 23299 ft 354 kts 295°
2026-05-06 18:32 42.65642 -1.48159 23027 ft 353 kts 295°
2026-05-06 18:33 42.66700 -1.51160 22752 ft 352 kts 295°
2026-05-06 18:33 42.67758 -1.54166 22472 ft 351 kts 295°
2026-05-06 18:33 42.68807 -1.57152 22210 ft 349 kts 295°
2026-05-06 18:33 42.69854 -1.60135 21944 ft 349 kts 295°
2026-05-06 18:34 42.70891 -1.63096 21633 ft 344 kts 295°
2026-05-06 18:34 42.71916 -1.66023 21204 ft 342 kts 295°
2026-05-06 18:34 42.72934 -1.68932 20756 ft 339 kts 295°
2026-05-06 18:34 42.74074 -1.71687 20320 ft 338 kts 302°
2026-05-06 18:35 42.75362 -1.74405 19868 ft 336 kts 302°
2026-05-06 18:35 42.76604 -1.77034 19443 ft 335 kts 302°
2026-05-06 18:35 42.77863 -1.79705 19011 ft 334 kts 302°
2026-05-06 18:35 42.79114 -1.82363 18574 ft 333 kts 302°
2026-05-06 18:36 42.80359 -1.85013 18133 ft 332 kts 302°
2026-05-06 18:36 42.81599 -1.87660 17704 ft 331 kts 302°
2026-05-06 18:36 42.82829 -1.90294 17281 ft 328 kts 302°
2026-05-06 18:36 42.84054 -1.92911 16849 ft 326 kts 302°
2026-05-06 18:37 42.85274 -1.95510 16459 ft 325 kts 301°
2026-05-06 18:37 42.86079 -1.97228 16187 ft 324 kts 301°
2026-05-06 18:37 42.87694 -2.00680 15645 ft 322 kts 301°
2026-05-06 18:37 42.88897 -2.03262 15242 ft 321 kts 301°
2026-05-06 18:38 42.90091 -2.05823 14838 ft 320 kts 301°
2026-05-06 18:38 42.91285 -2.08386 14440 ft 319 kts 301°
2026-05-06 18:38 42.92474 -2.10939 14031 ft 318 kts 301°
2026-05-06 18:38 42.93645 -2.13449 13612 ft 317 kts 301°
2026-05-06 18:39 42.94828 -2.15984 13200 ft 314 kts 301°
2026-05-06 18:39 42.95994 -2.18492 12797 ft 312 kts 301°
2026-05-06 18:39 42.97148 -2.20980 12396 ft 309 kts 301°
2026-05-06 18:40 42.99425 -2.25896 11593 ft 303 kts 301°
2026-05-06 18:40 43.00549 -2.28326 11195 ft 301 kts 301°
2026-05-06 18:40 43.01667 -2.30743 10785 ft 300 kts 301°
2026-05-06 18:40 43.02781 -2.33151 10383 ft 299 kts 301°
2026-05-06 18:41 43.03891 -2.35548 10084 ft 294 kts 301°
2026-05-06 18:41 43.04949 -2.37838 9924 ft 285 kts 301°
2026-05-06 18:41 43.06102 -2.40030 9406 ft 288 kts 313°
2026-05-06 18:41 43.07654 -2.41709 9125 ft 281 kts 328°
2026-05-06 18:42 43.09438 -2.42764 8478 ft 278 kts 340°
2026-05-06 18:42 43.11231 -2.43686 7851 ft 272 kts 331°
2026-05-06 18:42 43.12759 -2.45160 7170 ft 268 kts 315°
2026-05-06 18:42 43.13897 -2.47158 6491 ft 267 kts 301°
2026-05-06 18:43 43.14734 -2.49377 6107 ft 254 kts 297°
2026-05-06 18:43 43.15480 -2.51456 6019 ft 235 kts 297°
2026-05-06 18:43 43.16213 -2.53439 6011 ft 233 kts 298°
2026-05-06 18:43 43.16945 -2.55408 5844 ft 231 kts 298°
2026-05-06 18:44 43.17673 -2.57365 5478 ft 230 kts 298°
2026-05-06 18:44 43.18396 -2.59313 5084 ft 227 kts 299°
2026-05-06 18:44 43.19109 -2.61234 5008 ft 226 kts 299°
2026-05-06 18:44 43.19570 -2.62480 5002 ft 214 kts 300°
2026-05-06 18:45 43.20420 -2.64777 4769 ft 197 kts 299°
2026-05-06 18:45 43.21029 -2.66419 4487 ft 190 kts 298°
2026-05-06 18:45 43.21630 -2.68042 4202 ft 192 kts 298°
2026-05-06 18:45 43.22038 -2.69144 4006 ft 192 kts 298°
2026-05-06 18:46 43.22646 -2.70790 3706 ft 194 kts 298°
2026-05-06 18:46 43.23258 -2.72445 3416 ft 196 kts 298°
2026-05-06 18:46 43.23867 -2.74095 3143 ft 195 kts 298°
2026-05-06 18:46 43.24472 -2.75735 2826 ft 192 kts 298°
2026-05-06 18:47 43.25070 -2.77357 2526 ft 189 kts 298°
2026-05-06 18:47 43.25661 -2.78959 2227 ft 185 kts 298°
2026-05-06 18:47 43.26226 -2.80495 1950 ft 177 kts 298°
2026-05-06 18:47 43.26762 -2.81951 1692 ft 163 kts 297°
2026-05-06 18:48 43.27252 -2.83281 1422 ft 150 kts 297°
2026-05-06 18:48 43.27709 -2.84525 1186 ft 143 kts 297°
2026-05-06 18:48 43.28156 -2.85738 980 ft 141 kts 296°
2026-05-06 18:48 43.28596 -2.86931 736 ft 140 kts 297°
2026-05-06 18:49 43.29027 -2.88119 524 ft 139 kts 296°
2026-05-06 18:49 43.29453 -2.89286 300 ft 138 kts 298°
2026-05-06 18:49 43.29890 -2.90452 131 ft 133 kts 297°
2026-05-06 18:49 43.30214 -2.91342 126 ft 64 kts 296°
2026-05-06 18:50 43.30330 -2.91652 126 ft 30 kts 298°
2026-05-06 18:50 43.30432 -2.91881 126 ft 25 kts 312°
2026-05-06 18:50 43.30549 -2.92010 126 ft 16 kts 327°
2026-05-06 18:50 43.30599 -2.92040 128 ft 0 kts
2026-05-06 18:51 43.30624 -2.92001 127 ft 9 kts 76°
2026-05-06 18:51 43.30616 -2.91928 127 ft 7 kts 116°
2026-05-06 18:52 43.30596 -2.91872 124 ft 6 kts 116°
2026-05-06 18:52 43.30570 -2.91804 127 ft 11 kts 117°
2026-05-06 18:52 43.30525 -2.91683 128 ft 18 kts 116°
2026-05-06 18:52 43.30460 -2.91504 125 ft 24 kts 116°
2026-05-06 18:53 43.30376 -2.91273 126 ft 30 kts 116°
2026-05-06 18:53 43.30315 -2.91050 127 ft 19 kts 71°
2026-05-06 18:53 43.30395 -2.90969 126 ft 16 kts 54°
2026-05-06 18:53 43.30408 -2.90813 127 ft 14 kts 95°
2026-05-06 18:54 43.30373 -2.90707 126 ft 3 kts 117°
2026-05-06 18:54 43.30370 -2.90690 126 ft 2 kts 95°
2026-05-06 18:54 43.30389 -2.90660 123 ft 7 kts 31°
2026-05-06 18:54 43.30423 -2.90635 127 ft 1 kts 27°
2026-05-06 18:55 43.30427 -2.90632 124 ft 0 kts 27°